Regional Weather Roundup
Issued by NWS Green Bay, WI

Home | Current Version | Previous Version | Text Only | Print | Product List | Glossary On
Versions: 1 2 3 4 5 6 7 8 9 10 11 12 13 14 15 16 17 18 19 20 21 22 23 24 25 26 27 28 29 30 31 32 33 34 35 36 37 38 39 40 41 42 43 44 45 46 47 48 49 50
000
ASUS43 KGRB 080011
RWRGRB

NORTH-CENTRAL AND NORTHEAST WISCONSIN REGIONAL WEATHER ROUNDUP
NATIONAL WEATHER SERVICE GREEN BAY WI
600 PM CST WED DEC 07 2016

WIZ005-009-010>012-018-019-080100-
NORTH CENTRAL WISCONSIN

CITY           SKY/WX    TMP DP  RH WIND       PRES   REMARKS
IRONWOOD       NOT AVBL
MANITOWISH WTR LGT SNOW  16  13  86 W14G21    29.83S WCI   2
ARBOR VITAE    LGT SNOW  19  15  84 W10       29.84S WCI   8
EAGLE RIVER    LGT SNOW  18  11  76 W18       29.82S WCI   2
LAND O LAKES   FLURRIES  17  12  78 W9G16     29.83R WCI   6
RHINELANDER    CLOUDY    19  12  74 W23G30    29.86R WCI   2
PHILLIPS       CLOUDY    17  11  78 W12G20    29.89R WCI   4
ANTIGO         FLURRIES  17  13  82 W18G24    29.88S WCI   1
TOMAHAWK       FLURRIES  17  11  75 W8G16     29.89S WCI   7
MERRILL        CLOUDY    19  12  74 W18       29.92S WCI   3
$$

WIZ013-073-080100-
NORTHEAST WISCONSIN

CITY           SKY/WX    TMP DP  RH WIND       PRES   REMARKS
IRON MOUNTAIN  NOT AVBL
MARINETTE      NOT AVBL
OCONTO         CLOUDY    23  12  62 W20G26    29.94S WCI   8
$$

WIZ017-030-035>037-045-080100-
CENTRAL WISCONSIN

CITY           SKY/WX    TMP DP  RH WIND       PRES   REMARKS
MEDFORD        FLURRIES  17  10  74 W13       29.93R WCI   4
WAUSAU         CLOUDY    19  12  74 W16G30    29.94R WCI   4
MOSINEE        CLOUDY    19  14  79 W18G29    29.96R WCI   4
MARSHFIELD     CLOUDY    18  11  74 W14       29.97R WCI   4
WISC RAPIDS    CLOUDY    20  12  71 W10G25    30.02R WCI   9
STEVENS POINT  CLOUDY    19  11  71 W14G24    29.98S WCI   5
WAUPACA        CLOUDY    24  15  68 W15G22    30.01R
SHAWANO        CLOUDY    24  13  63 W16G22    29.96R
CLINTONVILLE   CLOUDY    23  12  63 W14G24    29.97S
WAUTOMA        FLURRIES  21  14  74 W16G22    30.03R WCI   7
$$

WIZ038-039-048-051-080100-
FOX VALLEY

CITY           SKY/WX    TMP DP  RH WIND       PRES   REMARKS
NWS GREEN BAY  CLOUDY    26  15  63 W20G28    29.97R
APPLETON       FLURRIES  21  12  68 W18G28    29.97R WCI   6
OSHKOSH        CLOUDY    22  13  68 W10G23    30.00R
FOND DU LAC    CLOUDY    22  11  62 W15G26    30.03R WCI   9
$$

WIZ022-050-052-080100-
EAST CENTRAL WISCONSIN

CITY           SKY/WX    TMP DP  RH WIND       PRES   REMARKS
EPHRAIM        CLOUDY    24  14  65 W14G22    29.89R
WASHINGTON ISL CLOUDY    24  14  65 W13G25    29.88S
STURGEON BAY   CLOUDY    25  16  68 W13       29.93R
MANITOWOC      CLOUDY    24  16  71 W12G22    29.99R
SHEBOYGAN      CLOUDY    22  13  68 W15G25    30.01R WCI   9
$$

LMZ563-521-522-541>543-080100-
LAKESHORE

STATION/POSITION TIME  TEMP    WIND        PRES    VSBY  WAVE
                       AIR SEA DIR/SP/G                  HT/PER
                 (UTC) (F)     (DEG/KT/KT) (MB)    (MI)  (FT/S)
SHEBOYGAN LKSHOR 0000   23     260/ 15/ 20 1017.2R
KEWAUNEE LKSHORE 2348   25     260/ 10/ 15 1014.0R
NORTHPORT PIER   2348   25     250/  7/ 21 1012.5R
SISTER BAY LKSHO 2353   26     320/ 27/ 32   N/A
CHAMBERS ISLAND  2340   24     240/ 14/ 27 1012.5R
MENOMINEE LKSHOR 2348   24     250/ 10/ 20 1012.6R
$$




USA.gov is the U.S. government's official web portal to all federal, state and local government web resources and services.